Location: Newark
(31.5350°N, 35.0986°E)
Time: 06:44:11
(UTC+00:00)

Vanguard 1 - Pass Details

Date: 25 September 2019
Orbit: 653 x 3830 km, 34.2° (Epoch: 17 October)

Event Time Altitude Azimuth Distance (km) Brightness Sun altitude
Rises 06:50:22 0° 284° (WNW) 6,595 13.8 40.0°
Reaches altitude 10° 06:57:25 10° 268° (W) 4,869 13.3 41.3°
Maximum altitude 07:04:24 17° 235° (SW) 3,556 12.9 42.5°
Drops below altitude 10° 07:09:37 10° 198° (SSW) 3,434 13.2 43.4°
Sets 07:13:18 0° 177° (S) 3,960 13.6 44.0°
